Weather History for KEAU - October, 2013

Change the Weather History Date:

Sunday, October 6, 2013

  Actual Average Record
Temperature  
Mean Temperature 50 °F 51 °F  
Max Temperature 59 °F 63 °F 87 °F (2007)
Min Temperature 40 °F 40 °F 20 °F (1935)
Degree Days  
Heating Degree Days 15 14  
Month to date heating degree days 51 79  
Since 1 July heating degree days 218 312  
Cooling Degree Days 0 0  
Month to date cooling degree days 0 0  
Year to date cooling degree days 653 575  
Moisture  
Dew Point 44 °F    
Average Humidity 78    
Maximum Humidity 100    
Minimum Humidity 55    
Precipitation  
Precipitation 0.03 in 0.09 in 3.27 in (1911)
Month to date precipitation 2.22 0.59  
Year to date precipitation 31.63 26.39  
Snow  
Snow 0.00 in 0.00 in T in (2012)
Month to date snowfall 0.0 0.0  
Since 1 July snowfall 0.0 0.0  
Since 1 September snowfall 0.0 0.0  
Snow Depth 0.00 in    
Sea Level Pressure  
Sea Level Pressure 29.72 in    
Wind  
Wind Speed 5 mph (WSW)    
Max Wind Speed 14 mph    
Max Gust Speed 18 mph    
Visibility 6 miles    
Events Fog , Rain    
T = Trace of Precipitation, MM = Missing Value Source: NWS Daily Summary

Daily Weather History Graph

Daily Weather History Graph

Search for Another Location

Airport or City:

Trip Planner

Search our weather history database for the weather conditions in past years. The results will help you decide how hot, cold, wet, or windy it might be!

Date:

Astronomy

Oct. 06, 2013 Rise Set
Actual Time 7:10 AM CDT 6:36 PM CDT
Civil Twilight 6:41 AM CDT 7:05 PM CDT
Nautical Twilight 6:07 AM CDT 7:39 PM CDT
Astronomical Twilight 5:33 AM CDT 8:13 PM CDT
Moon 9:01 AM CDT (10/6) 7:29 PM CDT (10/6)
Length of Visible Light 12h 24m
Length of Day
11h 26m
Waxing Crescent, 3% of the Moon is Illuminated
Oct 6
Waxing Crescent
Oct 11
First Quarter
Oct 18
Full
Oct 26
Last Quarter
Nov 3
New

Hourly Weather History & Observations

Time (CDT) Temp. Windchill Dew Point Humidity Pressure Visibility Wind Dir Wind Speed Gust Speed Precip Events Conditions
12:56 AM 46.9 °F - 46.0 °F 97% 29.73 in 10.0 mi Calm Calm - N/A   Clear
1:11 AM 46.4 °F 45.2 °F 46.4 °F 100% 29.73 in 2.0 mi SW 3.5 mph - N/A   Partly Cloudy
1:15 AM 46.4 °F 44.3 °F 46.4 °F 100% 29.73 in 1.0 mi SSW 4.6 mph - N/A   Mist
1:22 AM 44.6 °F 43.1 °F 44.6 °F 100% 29.73 in 0.8 mi South 3.5 mph - N/A   Mist
1:29 AM 44.6 °F 42.2 °F 44.6 °F 100% 29.73 in 1.2 mi SSW 4.6 mph - N/A   Partly Cloudy
1:34 AM 44.6 °F 42.2 °F 44.6 °F 100% 29.73 in 3.0 mi SSW 4.6 mph - N/A   Partly Cloudy
1:56 AM 46.9 °F - 46.9 °F 100% 29.74 in 9.0 mi SSW 8.1 mph - N/A   Partly Cloudy
2:56 AM 45.0 °F - 45.0 °F 100% 29.72 in 10.0 mi Calm Calm - 0.01 in   Clear
3:56 AM 44.1 °F 41.5 °F 44.1 °F 100% 29.70 in 10.0 mi SSE 4.6 mph - N/A   Clear
4:27 AM 42.8 °F - 42.8 °F 100% 29.69 in 1.5 mi Calm Calm - N/A   Clear
4:29 AM 42.8 °F - 42.8 °F 100% 29.69 in 1.0 mi Calm Calm - N/A   Mist
4:37 AM 42.8 °F - 42.8 °F 100% 29.69 in 0.5 mi Calm Calm - N/A Fog Fog
4:56 AM 41.0 °F - 41.0 °F 100% 29.70 in 1.0 mi Calm Calm - N/A   Mostly Cloudy
5:05 AM 42.8 °F - 41.0 °F 93% 29.69 in 0.8 mi Calm Calm - N/A   Mist
5:11 AM 42.8 °F - 42.8 °F 100% 29.69 in 0.2 mi Calm Calm - N/A Fog Fog
5:35 AM 39.2 °F 37.0 °F 39.2 °F 100% 29.70 in 0.8 mi West 3.5 mph - N/A   Mist
5:48 AM 42.8 °F 39.3 °F 42.8 °F 100% 29.70 in 0.8 mi WNW 5.8 mph - N/A   Mostly Cloudy
5:53 AM 42.8 °F 39.3 °F 42.8 °F 100% 29.71 in 2.0 mi West 5.8 mph - N/A   Mostly Cloudy
5:56 AM 43.0 °F 40.3 °F 43.0 °F 100% 29.72 in 8.0 mi West 4.6 mph - N/A   Mostly Cloudy
6:56 AM 43.0 °F - 42.1 °F 97% 29.71 in 10.0 mi Calm Calm - N/A   Scattered Clouds
7:18 AM 42.8 °F - 41.0 °F 93% 29.71 in 2.5 mi Calm Calm - N/A   Partly Cloudy
7:20 AM 42.8 °F - 41.0 °F 93% 29.71 in 1.0 mi Calm Calm - N/A   Mist
7:24 AM 41.0 °F - 41.0 °F 100% 29.71 in 0.2 mi Calm Calm - N/A Fog Fog
7:31 AM 41.0 °F 39.0 °F 41.0 °F 100% 29.71 in 0.5 mi South 3.5 mph - N/A Fog Fog
7:36 AM 42.8 °F 41.1 °F 42.8 °F 100% 29.71 in 3.0 mi South 3.5 mph - N/A   Mostly Cloudy
7:56 AM 43.0 °F 40.3 °F 42.1 °F 97% 29.71 in 10.0 mi SSE 4.6 mph - N/A   Partly Cloudy
8:56 AM 46.0 °F - 44.1 °F 93% 29.72 in 10.0 mi Calm Calm - N/A   Clear
9:12 AM 48.2 °F - 44.6 °F 87% 29.71 in 10.0 mi Calm Calm - N/A   Partly Cloudy
9:56 AM 48.0 °F - 45.0 °F 89% 29.72 in 10.0 mi SW 4.6 mph - N/A   Partly Cloudy
10:56 AM 51.1 °F - 44.1 °F 77% 29.72 in 10.0 mi Calm Calm - N/A   Clear
11:56 AM 55.0 °F - 43.0 °F 64% 29.72 in 10.0 mi NW 4.6 mph - N/A   Overcast
12:56 PM 55.0 °F - 39.9 °F 57% 29.70 in 10.0 mi South 3.5 mph - N/A   Mostly Cloudy
1:05 PM 55.4 °F - 39.2 °F 54% 29.69 in 10.0 mi Variable 4.6 mph - N/A   Mostly Cloudy
1:56 PM 54.0 °F - 39.0 °F 57% 29.69 in 10.0 mi Variable 3.5 mph - N/A   Mostly Cloudy
2:56 PM 55.9 °F - 39.0 °F 53% 29.69 in 10.0 mi Variable 3.5 mph - N/A   Mostly Cloudy
3:56 PM 55.9 °F - 41.0 °F 57% 29.69 in 10.0 mi SSW 4.6 mph - N/A   Mostly Cloudy
4:56 PM 55.0 °F - 41.0 °F 59% 29.71 in 10.0 mi SW 6.9 mph - N/A   Overcast
5:56 PM 53.1 °F - 43.0 °F 69% 29.72 in 10.0 mi SW 6.9 mph - N/A   Overcast
6:56 PM 51.1 °F - 44.1 °F 77% 29.73 in 10.0 mi WSW 6.9 mph - N/A   Mostly Cloudy
7:56 PM 52.0 °F - 44.1 °F 74% 29.75 in 10.0 mi West 6.9 mph - N/A   Overcast
8:35 PM 50.0 °F - 46.4 °F 87% 29.74 in 10.0 mi West 5.8 mph - N/A   Overcast
8:40 PM 50.0 °F - 46.4 °F 87% 29.74 in 9.0 mi West 8.1 mph - N/A   Overcast
8:56 PM 50.0 °F - 48.9 °F 96% 29.75 in 4.0 mi WNW 5.8 mph - 0.00 in Rain Light Rain
9:23 PM 51.8 °F - 48.2 °F 88% 29.75 in 10.0 mi NNW 8.1 mph - 0.00 in   Overcast
9:47 PM 50.0 °F - 48.2 °F 94% 29.75 in 10.0 mi NNW 9.2 mph - 0.01 in Rain Light Rain
9:56 PM 48.9 °F - 48.0 °F 97% 29.77 in 9.0 mi NNW 11.5 mph - 0.02 in Rain Light Rain
10:27 PM 48.2 °F - 46.4 °F 93% 29.77 in 10.0 mi NNW 10.4 mph - 0.01 in Rain Light Rain
10:56 PM 48.9 °F - 46.9 °F 93% 29.78 in 10.0 mi NNW 8.1 mph - 0.01 in   Overcast
11:49 PM 48.2 °F - 44.6 °F 87% 29.78 in 10.0 mi NNW 9.2 mph - N/A   Mostly Cloudy
11:56 PM 48.0 °F - 44.1 °F 86% 29.79 in 10.0 mi NNW 6.9 mph - N/A   Mostly Cloudy